Home > Weather > Salzgitter > Past weeks

Flag for Germany Past Weather in Salzgitter, Lower Saxony, Germany — Yesterday and Last 2 Weeks

Now
68 °F

Scattered clouds.


Feels Like: 68 °F
Forecast: 58 / 72 °F
Wind: 10 mph from Southeast

Location: Braunschweig Wolfsburg

Current Time: May 28, 2016 at 2:02:31 PM

Latest Report: May 28, 2016 at 11:50 AM


Visibility: N/A

Pressure: 29.98 "Hg

Humidity: 60%

Dew Point: 54 °F

Location of SalzgitterLocation

Past Weather in Salzgitter — Graph

°F

Salzgitter Temperature Yesterday

Maximum temperature yesterday: 70 °F (at 4:20 PM)
Minimum temperature yesterday: 50 °F (at 6:50 AM)
Average temperature yesterday: 64 °F

High & Low Weather Summary for the Past Weeks

 TemperatureHumidityPressure
High84 °F (May 22, 3:20 PM)100% (May 24, 6:50 AM)30.07 "Hg (May 24, 6:50 AM)
Low41 °F (May 16, 7:20 AM)23% (May 13, 1:20 PM)29.56 "Hg (May 13, 4:20 PM)
Average61 °F64%29.91 "Hg
* Reported May 13 11:20 AM — May 28 11:50 AM, Salzgitter, Weather by CustomWeather, © 2016

Note: Actual official high and low records may vary slightly from our data, if they occured in-between our weather recording intervals... More about our weather records

Advertising

Salzgitter Weather History for the Previous 24 Hours

Scroll right to see more
 ConditionsComfort  
Time TempWeatherWind HumidityBarometerVisibility
11:50 AM
Sat, May 28
68 °FScattered clouds.10 mph60%29.98 "HgN/A
8:50 AM59 °FClear.2 mph88%30.01 "Hg4 mi
9:50 PM
Fri, May 27
57 °FSunny.3 mph82%30.01 "Hg10 mi
9:20 PM61 °FSunny.5 mph77%30.01 "Hg10 mi
8:50 PM64 °FSunny.6 mph68%30.01 "Hg10 mi
8:20 PM66 °FSunny.6 mph64%30.01 "Hg10 mi
7:50 PM68 °FSunny.7 mph56%30.01 "Hg10 mi
7:20 PM68 °FPassing clouds.7 mph56%30.01 "HgN/A
6:50 PM70 °FScattered clouds.6 mph53%30.01 "HgN/A
6:20 PM68 °FScattered clouds.3 mph56%30.01 "HgN/A
5:50 PM70 °FPartly sunny.6 mph57%30.01 "HgN/A
5:20 PM70 °FScattered clouds.7 mph53%30.01 "HgN/A
4:50 PM70 °FPartly sunny.7 mph53%30.01 "HgN/A
4:20 PM70 °FPartly sunny.7 mph57%30.04 "HgN/A
3:50 PM68 °FPassing clouds.6 mph60%30.04 "HgN/A
3:20 PM68 °FPassing clouds.5 mph60%30.04 "HgN/A
2:50 PM66 °FScattered clouds.6 mph68%30.04 "HgN/A
2:20 PM66 °FPartly sunny.7 mph68%30.04 "HgN/A
Weather by CustomWeather, © 2016

See weather overviewHow to use our weather pages